TimeCDT,TemperatureF,Dew PointF,Humidity,Sea Level PressureIn,VisibilityMPH,Wind Direction,Wind SpeedMPH,Gust SpeedMPH,PrecipitationIn,Events,Conditions,WindDirDegrees,DateUTC
12:53 AM,75.0,68.0,79,30.04,10.0,SE,8.1,-,N/A,,Clear,140,2012-10-04 05:53:00
1:53 AM,75.9,69.1,79,30.03,10.0,SSE,9.2,-,N/A,,Clear,150,2012-10-04 06:53:00
2:53 AM,77.0,70.0,79,30.03,10.0,SSE,8.1,-,N/A,,Clear,150,2012-10-04 07:53:00
3:53 AM,78.1,71.1,79,30.03,10.0,SSE,8.1,-,N/A,,Mostly Cloudy,150,2012-10-04 08:53:00
4:53 AM,77.0,71.1,82,30.04,10.0,SSE,6.9,-,N/A,,Partly Cloudy,150,2012-10-04 09:53:00
5:53 AM,77.0,72.0,84,30.06,10.0,SE,6.9,-,N/A,,Clear,140,2012-10-04 10:53:00
6:53 AM,77.0,72.0,84,30.07,10.0,SE,6.9,-,N/A,,Partly Cloudy,140,2012-10-04 11:53:00
7:53 AM,78.1,72.0,81,30.08,10.0,SE,9.2,-,N/A,,Mostly Cloudy,140,2012-10-04 12:53:00
8:53 AM,82.0,73.0,74,30.09,10.0,SE,12.7,-,N/A,,Clear,140,2012-10-04 13:53:00
9:53 AM,84.9,73.0,67,30.11,10.0,SSE,16.1,-,N/A,,Clear,150,2012-10-04 14:53:00
11:53 AM,88.0,73.0,61,30.12,10.0,SSE,13.8,-,N/A,,Unknown,150,2012-10-04 16:53:00
12:53 PM,88.0,73.0,61,30.11,10.0,SSE,17.3,-,N/A,,Partly Cloudy,150,2012-10-04 17:53:00
1:34 PM,86.0,73.4,66,30.10,10.0,SSE,15.0,24.2,N/A,,Mostly Cloudy,150,2012-10-04 18:34:00
1:53 PM,86.0,73.0,65,30.09,10.0,SSE,17.3,-,N/A,,Overcast,150,2012-10-04 18:53:00
2:11 PM,87.8,73.4,62,30.09,10.0,SE,16.1,-,N/A,,Mostly Cloudy,140,2012-10-04 19:11:00
2:32 PM,86.0,73.4,66,30.09,10.0,SSE,15.0,-,N/A,,Mostly Cloudy,160,2012-10-04 19:32:00
2:53 PM,87.1,73.0,63,30.09,10.0,SE,13.8,-,N/A,,Overcast,140,2012-10-04 19:53:00
3:08 PM,87.8,73.4,62,30.09,10.0,SSE,15.0,-,N/A,,Mostly Cloudy,160,2012-10-04 20:08:00
3:53 PM,86.0,73.0,65,30.09,10.0,SSE,15.0,-,N/A,,Mostly Cloudy,150,2012-10-04 20:53:00
4:27 PM,87.8,73.4,62,30.08,10.0,SSE,13.8,-,N/A,,Mostly Cloudy,160,2012-10-04 21:27:00
4:53 PM,84.2,73.4,70,30.08,10.0,SE,12.7,-,N/A,,Mostly Cloudy,140,2012-10-04 21:53:00
5:53 PM,84.0,72.0,67,30.09,10.0,SSE,13.8,-,N/A,,Scattered Clouds,150,2012-10-04 22:53:00
6:53 PM,82.0,72.0,71,30.10,10.0,SE,8.1,-,N/A,,Partly Cloudy,140,2012-10-04 23:53:00
7:53 PM,79.0,73.0,82,30.10,10.0,SE,4.6,-,N/A,,Scattered Clouds,130,2012-10-05 00:53:00
8:53 PM,78.1,73.0,84,30.11,10.0,SE,5.8,-,N/A,,Partly Cloudy,130,2012-10-05 01:53:00
9:31 PM,78.8,73.4,83,30.11,10.0,SE,8.1,-,N/A,,Mostly Cloudy,140,2012-10-05 02:31:00
9:39 PM,78.8,73.4,83,30.11,10.0,SE,6.9,-,N/A,,Scattered Clouds,140,2012-10-05 02:39:00
9:53 PM,78.1,73.0,84,30.11,10.0,SE,6.9,-,N/A,,Partly Cloudy,140,2012-10-05 02:53:00
10:53 PM,77.0,73.0,88,30.10,10.0,SSE,6.9,-,N/A,,Clear,150,2012-10-05 03:53:00
11:53 PM,77.0,73.0,88,30.10,10.0,SSE,8.1,-,N/A,,Clear,150,2012-10-05 04:53:00